User: anonymous   Login
Location: Taipo
(41.0000°S, 175.9500°E)
Time: 05:07:27
(UTC+00:00)
Language:

SMAP - Orbit

View from above orbital plane
View from above orbital plane
View from above satellite
View from above satellite

Ground track
Ground track

The orbit data is extracted from the following two-line orbital elements,

1 40376U 15003A   24164.92545840  .00000959  00000-0  19477-3 0  9997
2 40376  98.1271 171.3788 0001524  84.1313 276.0062 14.63327490500239
Epoch (UTC): 12 June 2024 22:12:39
Eccentricity: 0.0001524
inclination: 98.1271°
perigee height: 681 km
apogee height: 683 km
right ascension of ascending node: 171.3788°
argument of perigee: 84.1313°
revolutions per day: 14.63327490
mean anomaly at epoch: 276.0062°
orbit number at epoch: 50023

The dashed part of the orbit path shows where the satellite is in the earth's shadow,  

DLR